Showing default

QIANFAN-148, 69107

Orbit data source: Space-Track

QIANFAN-148, 69107 is a Chinese payload satellite in LEO that was launched on Sun, 17 May 2026 UTC via a CHANG ZHENG 8 launch vehicle from the Wenchang Satellite Launch Center (WSC). Payload-class satellites include a variety of spacecraft equipped with specific instruments for various scientific and technological missions. These include communications satellites like Starlink; space stations such as the ISS; scientific satellites like the Hubble; Earth observation satellites from companies like Planet Labs, Umbra, and HawkEye 360; GPS; miniature CubeSats for education and research; and military/defense satellites.

Loading next visibility...
Identifier
69107, 2026-108D
Orbit
LEO
Country
Flag of CNCN / PRC
Related business
Manufacturer
SECM
Mission
Operational spacecraft
Bus & Motor
QIANFAN, Unknown motor
Mass
267 kg wet, ~267 kg dry
Launch date (UTC)
2026-05-17 (1 month ago)
Launch vehicle
CHANG ZHENG 8
Launch site
Wenchang Satellite Launch Center (WSC)
Object type
Payload
Rocket body
Debris
Shape & HBR
Unknown shape, 14.5 m
Radar Cross Section
Large (>1 m²)

Expand to show TLE details & history
Last TLE update: 22 hours ago

TLE from 22 hours ago
0 QIANFAN-148
1 69107U 26108D   26170.92529016  .00000042  00000-0  18716-4 0  9993
2 69107  89.0102  21.9218 0018016  99.6601 260.6615 14.00156373  4724
Epoch: 2026-06-19T22:12Z
TLE epoch observation values (Epoch: 2026-06-19T22:12:25.069Z)
Latitude
0.00004°
Longitude
140.67007°
Altitude
898.427 km
Speed
7.402 km/s
True Right ascension
01h 27m 41s
True Declination
0° 00' 00"
Sunlit
Object was in daylight at epoch
Visualization orbit readout
Latitude
Unknown
Longitude
Unknown
Altitude
Unknown
Speed
Unknown
Apparent Right ascension
Unknown
Apparent Declination
Unknown
Sunlit
N/A
Visualization observer readout
Local Sidereal Time
07:15:39
Azimuth
Unknown
Elevation
Unknown
Doppler factor
Unknown
Orbital elements
Apogee altitude
903.328 km
Perigee altitude
877.139 km
Semi-major axis
7,268.37 km
Eccentricity
0.0018
Inclination
89.0102°
RAAN
21.9218°
Arg. of periapsis
99.6601°
True anomaly
260.45786°
Mean anomaly
260.6615°
Eccentric anomaly
260.55967°
Mean motion
3.50258 °/min
Orbital period
102.78 mins
BSTAR
0.000018716
Loading maneuver chart data...
Computing Atmospheric mass density...
Loading historical data...
Loading historical data...
Loading historical data...
Loading historical data...
Loading historical data...
Loading historical data...
Loading historical data...

Documentation

Showing up to 5 results
|